Simultaneous Nadir Overpasses (SNOs) Predictions

Prediction of SNOs between LANDSAT-8 and NOAA-19 Satellite Orbit:

Table of predicted SNOs for the next 14.0 days since TLE Epoch: 1/2/2021
Index Date (LANDSAT-8) Time (LANDSAT-8) Lat,Lon (LANDSAT-8) SZA (LANDSAT-8 ) Date (NOAA-19) Time (NOAA-19) Lat,Lon (NOAA-19) SZA (NOAA-19 ) Distance(km) Time Diff (sec)
1 01/03/2021 14:57:14 -80.14, 164.43 76.10 01/03/2021 14:56:26 -80.16, 164.48 76.10 2.39 48
2 01/03/2021 15:46:40 80.14, -27.91 103.90 01/03/2021 15:47:28 80.13, -27.86 103.91 1.50 48
3 01/05/2021 20:30:56 80.16, -98.80 103.67 01/05/2021 20:29:43 80.17, -98.90 103.65 2.09 73
4 01/05/2021 21:20:24 -80.13, 68.56 76.39 01/05/2021 21:20:39 -80.15, 68.58 76.36 2.84 15
5 01/08/2021 02:54:06 80.15, 165.29 103.34 01/08/2021 02:53:56 80.15, 165.34 103.35 1.33 10
6 01/10/2021 08:27:49 -80.17, -97.96 76.97 01/10/2021 08:27:05 -80.15, -97.86 76.98 2.44 44
7 01/10/2021 09:17:15 80.16, 69.65 103.03 01/10/2021 09:18:09 80.14, 69.55 103.02 2.95 54
8 01/12/2021 14:01:31 80.18, -1.31 102.68 01/12/2021 14:00:23 80.16, -1.22 102.66 2.32 68
9 01/12/2021 14:50:59 -80.15, 166.09 77.37 01/12/2021 14:51:18 -80.15, 166.24 77.35 2.82 19
10 01/14/2021 20:24:41 80.15, -97.29 102.24 01/14/2021 20:24:37 80.17, -97.36 102.25 2.49 4



Historial Predications of SNOs between LANDSAT-8 and NOAA-19
